| time (UTC) | temp F | wind direction | speed knots | gust knots | rain 1hr in | rain 24hr in | rain mn in | humidity % | barometer mb |
| 20260502234526 | 43 | 326 | 0.0 | 0.0 | 0.00 | 0.00 | 0.31 | 75 | 1016.5 |
| 20260502233014 | 43 | 326 | 0.0 | 0.0 | 0.00 | 0.00 | 0.31 | 75 | 1016.3 |
| 20260502231509 | 43 | 326 | 0.0 | 0.0 | 0.00 | 0.00 | 0.31 | 74 | 1016.3 |
| 20260502230015 | 43 | 326 | 0.0 | 0.0 | 0.00 | 0.00 | 0.31 | 72 | 1016.4 |
| 20260502224612 | 43 | 330 | 0.0 | 0.0 | 0.00 | 0.00 | 0.31 | 71 | 1016.5 |
| 20260502224501 | 43 | 330 | 0.0 | 0.0 | 0.00 | 0.00 | 0.31 | 71 | 1016.5 |
| 20260502223057 | 43 | 330 | 0.0 | 0.0 | 0.00 | 0.00 | 0.31 | 69 | 1016.5 |
| 20260502223002 | 43 | 331 | 0.0 | 0.0 | 0.00 | 0.00 | 0.31 | 69 | 1016.5 |
| 20260502221555 | 43 | 16 | 0.0 | 0.0 | 0.00 | 0.00 | 0.31 | 70 | 1016.4 |
| 20260502220042 | 43 | 17 | 0.0 | 0.0 | 0.00 | 0.00 | 0.31 | 70 | 1016.5 |
| 20260502214531 | 43 | 17 | 0.9 | 0.0 | 0.00 | 0.00 | 0.31 | 70 | 1016.4 |
| 20260502213022 | 43 | 323 | 0.9 | 0.0 | 0.00 | 0.00 | 0.31 | 70 | 1016.4 |
| 20260502211532 | 43 | 43 | 1.7 | 0.0 | 0.00 | 0.00 | 0.31 | 69 | 1016.3 |
| 20260502210016 | 44 | 269 | 0.9 | 0.0 | 0.00 | 0.00 | 0.31 | 70 | 1016.2 |
| 20260502204556 | 43 | 69 | 2.6 | 0.0 | 0.00 | 0.00 | 0.31 | 69 | 1016.2 |
| 20260502203057 | 43 | 57 | 2.6 | 0.0 | 0.00 | 0.00 | 0.31 | 67 | 1016.3 |
| 20260502201534 | 43 | 30 | 2.6 | 0.0 | 0.00 | 0.00 | 0.31 | 68 | 1016.3 |
| 20260502200024 | 44 | 355 | 2.6 | 0.0 | 0.00 | 0.00 | 0.31 | 65 | 1016.4 |
| 20260502194508 | 44 | 350 | 3.5 | 0.0 | 0.00 | 0.00 | 0.31 | 68 | 1016.4 |
| 20260502193100 | 44 | 47 | 3.5 | 0.0 | 0.00 | 0.00 | 0.31 | 71 | 1016.4 |
| 20260502193002 | 44 | 59 | 3.5 | 0.0 | 0.00 | 0.00 | 0.31 | 71 | 1016.4 |
| 20260502191549 | 45 | 44 | 1.7 | 0.0 | 0.00 | 0.00 | 0.31 | 68 | 1016.4 |
| 20260502190041 | 45 | 261 | 2.6 | 0.0 | 0.00 | 0.00 | 0.31 | 69 | 1016.5 |
| 20260502184546 | 44 | 295 | 3.5 | 0.0 | 0.00 | 0.00 | 0.31 | 71 | 1016.5 |
| 20260502183034 | 45 | 252 | 2.6 | 0.0 | 0.00 | 0.00 | 0.31 | 72 | 1016.6 |
| 20260502181516 | 44 | 327 | 1.7 | 0.0 | 0.00 | 0.00 | 0.31 | 72 | 1016.6 |
| 20260502163055 | 43 | 232 | 2.6 | 0.0 | 0.00 | 0.00 | 0.31 | 73 | 1016.7 |
| 20260502161542 | 43 | 225 | 2.6 | 0.0 | 0.00 | 0.00 | 0.31 | 76 | 1016.7 |
| 20260502151518 | 41 | 323 | 1.7 | 0.0 | 0.00 | 0.00 | 0.31 | 81 | 1016.7 |
| 20260502123037 | 34 | 355 | 1.7 | 0.0 | 0.00 | 0.00 | 0.23 | 95 | 1016.3 |
| 20260502121528 | 34 | 313 | 1.7 | 0.0 | 0.00 | 0.00 | 0.21 | 95 | 1016.1 |
| 20260502114606 | 33 | 277 | 0.9 | 0.0 | 0.00 | 0.00 | 0.17 | 95 | 1016.1 |
| 20260502113049 | 33 | 242 | 0.0 | 0.0 | 0.00 | 0.00 | 0.16 | 96 | 1016.4 |
| 20260502111531 | 32 | 242 | 0.0 | 0.0 | 0.00 | 0.00 | 0.14 | 96 | 1016.2 |
| 20260502110025 | 32 | 242 | 0.0 | 0.0 | 0.00 | 0.00 | 0.14 | 95 | 1016.1 |
| 20260502104523 | 32 | 242 | 0.0 | 0.0 | 0.00 | 0.00 | 0.13 | 95 | 1015.8 |
| 20260502103014 | 32 | 242 | 0.0 | 0.0 | 0.00 | 0.00 | 0.12 | 95 | 1015.8 |
| 20260502101622 | 32 | 242 | 0.0 | 0.0 | 0.00 | 0.00 | 0.11 | 95 | 1015.7 |
| 20260502101512 | 32 | 242 | 0.0 | 0.0 | 0.00 | 0.00 | 0.11 | 95 | 1015.8 |
| 20260502091527 | 33 | 242 | 0.0 | 0.0 | 0.00 | 0.00 | 0.07 | 95 | 1015.6 |
| 20260502071513 | 35 | 242 | 0.0 | 0.0 | 0.00 | 0.00 | 0.00 | 94 | 1015.5 |
| 20260502070132 | 35 | 242 | 0.0 | 0.0 | 0.00 | 0.00 | 0.00 | 94 | 1015.6 |
| 20260502070005 | 35 | 242 | 0.0 | 0.0 | 0.00 | 0.00 | 0.00 | 94 | 1015.6 |
| 20260502064555 | 36 | 242 | 0.0 | 0.0 | 0.00 | 0.00 | 0.00 | 94 | 1015.8 |
| 20260502063040 | 36 | 242 | 0.0 | 0.0 | 0.00 | 0.00 | 0.00 | 94 | 1015.8 |
| 20260502061528 | 37 | 242 | 0.9 | 0.0 | 0.00 | 0.00 | 0.00 | 94 | 1015.7 |
| 20260502060016 | 37 | 242 | 0.9 | 0.0 | 0.00 | 0.00 | 0.00 | 95 | 1015.7 |
| 20260502054506 | 37 | 210 | 0.9 | 0.0 | 0.00 | 0.00 | 0.00 | 95 | 1015.9 |
| 20260502053054 | 37 | 207 | 0.0 | 0.0 | 0.00 | 0.00 | 0.00 | 94 | 1015.7 |
| 20260502051600 | 37 | 113 | 0.0 | 0.0 | 0.00 | 0.00 | 0.00 | 94 | 1015.7 |
| 20260502050030 | 38 | 113 | 0.0 | 0.0 | 0.00 | 0.00 | 0.00 | 94 | 1015.7 |
| 20260502044519 | 38 | 113 | 0.0 | 0.0 | 0.00 | 0.00 | 0.00 | 94 | 1015.6 |
| 20260502043008 | 38 | 113 | 0.0 | 0.0 | 0.00 | 0.00 | 0.00 | 94 | 1015.6 |
| 20260502041551 | 39 | 113 | 0.0 | 0.0 | 0.00 | 0.00 | 0.00 | 94 | 1015.6 |
| 20260502040052 | 39 | 113 | 0.0 | 0.0 | 0.00 | 0.00 | 0.00 | 94 | 1015.5 |
| 20260502034529 | 39 | 84 | 0.0 | 0.0 | 0.00 | 0.00 | 0.10 | 94 | 1015.6 |
| 20260502033020 | 38 | 57 | 0.0 | 0.0 | 0.00 | 0.00 | 0.10 | 93 | 1015.8 |
| 20260502031508 | 39 | 57 | 0.0 | 0.0 | 0.00 | 0.00 | 0.10 | 93 | 1015.7 |
| 20260502030058 | 39 | 58 | 0.0 | 0.0 | 0.00 | 0.00 | 0.10 | 93 | 1015.7 |
| 20260502024513 | 40 | 57 | 0.0 | 0.0 | 0.00 | 0.00 | 0.10 | 93 | 1015.6 |
| 20260502023123 | 41 | 58 | 0.0 | 0.0 | 0.00 | 0.00 | 0.10 | 93 | 1015.3 |
| 20260502021551 | 41 | 57 | 0.0 | 0.0 | 0.00 | 0.00 | 0.10 | 93 | 1015.4 |
| 20260502014532 | 41 | 58 | 0.0 | 0.0 | 0.00 | 0.00 | 0.10 | 92 | 1015.2 |
| 20260502013025 | 41 | 57 | 0.0 | 0.0 | 0.00 | 0.00 | 0.10 | 92 | 1014.9 |
| 20260502011522 | 41 | 58 | 0.0 | 0.0 | 0.00 | 0.00 | 0.10 | 92 | 1014.7 |
| 20260502010014 | 41 | 57 | 0.0 | 0.0 | 0.00 | 0.00 | 0.09 | 91 | 1014.7 |
| 20260502004624 | 42 | 60 | 0.0 | 0.0 | 0.00 | 0.00 | 0.09 | 90 | 1014.5 |
| 20260502004505 | 42 | 60 | 0.0 | 0.0 | 0.00 | 0.00 | 0.09 | 89 | 1014.5 |
| 20260502003054 | 42 | 60 | 0.0 | 0.0 | 0.00 | 0.00 | 0.09 | 88 | 1014.6 |
| 20260502001603 | 42 | 60 | 0.0 | 0.0 | 0.00 | 0.00 | 0.09 | 86 | 1014.4 |
| 20260502000038 | 43 | 291 | 2.6 | 0.0 | 0.00 | 0.00 | 0.08 | 81 | 1014.4 |